Weather History for Wadena, MN

Change the Weather History Date:

Friday, March 1, 2013

  Actual Average Record
Temperature  
Mean Temperature 14 °F -  
Max Temperature 26 °F 30 °F 49 °F (1961)
Min Temperature 3 °F 10 °F -32 °F (1962)
Degree Days  
Heating Degree Days 50    
Moisture  
Dew Point 8 °F    
Average Humidity 72    
Maximum Humidity 92    
Minimum Humidity 51    
Precipitation  
Precipitation 0.00 in - - ()
Sea Level Pressure  
Sea Level Pressure 30.32 in    
Wind  
Wind Speed 3 mph (NNE)    
Max Wind Speed 8 mph    
Max Gust Speed -    
Visibility 10 miles    
Events      
Averages and records for this station are not official NWS values.
T = Trace of Precipitation, MM = Missing Value Source: NWS Daily Summary

Daily Weather History Graph

Daily Weather History Graph

Search for Another Location

Airport:

Trip Planner

Search our weather history database for the weather conditions in past years. The results will help you decide how hot, cold, wet, or windy it might be!

Date:

Astronomy

Mar. 01, 2013 Rise Set
Actual Time 6:59 AM CST 6:07 PM CST
Civil Twilight 6:29 AM CST 6:37 PM CST
Nautical Twilight 5:54 AM CST 7:12 PM CST
Astronomical Twilight 5:19 AM CST 7:47 PM CST
Moon 11:01 PM CST (3/1) 8:29 AM CST (3/1)
Length of Visible Light 12h 08m
Length of Day
11h 07m
Waning Gibbous, 83% of the Moon is Illuminated
Mar 1
Waning Gibbous
Mar 4
Last Quarter
Mar 11
New
Mar 19
First Quarter
Mar 27
Full

Hourly Weather History & Observations

Time (CST) Temp. Windchill Dew Point Humidity Pressure Visibility Wind Dir Wind Speed Gust Speed Precip Events Conditions
12:14 AM 17.6 °F 12.3 °F 10.4 °F 73% 30.24 in 10.0 mi NNE 3.5 mph - N/A   Scattered Clouds
12:34 AM 15.8 °F - 8.6 °F 73% 30.25 in 10.0 mi Calm Calm - N/A   Scattered Clouds
12:53 AM 17.6 °F 12.3 °F 8.6 °F 68% 30.25 in 10.0 mi East 3.5 mph - N/A   Clear
1:15 AM 15.8 °F 10.2 °F 8.6 °F 73% 30.25 in 10.0 mi ENE 3.5 mph - N/A   Clear
1:35 AM 15.8 °F 10.2 °F 8.6 °F 73% 30.26 in 10.0 mi East 3.5 mph - N/A   Clear
2:15 AM 12.2 °F - 8.6 °F 85% 30.27 in 10.0 mi Calm Calm - N/A   Clear
2:34 AM 12.2 °F 4.3 °F 8.6 °F 85% 30.27 in 10.0 mi NW 4.6 mph - N/A   Clear
3:01 AM 10.4 °F - 6.8 °F 85% 30.28 in 10.0 mi NNE 2.3 mph - N/A   Clear
3:36 AM 10.4 °F - 8.6 °F 92% 30.28 in 10.0 mi Calm Calm - N/A   Scattered Clouds
3:53 AM 10.4 °F 4.0 °F 6.8 °F 85% 30.28 in 10.0 mi NE 3.5 mph - N/A   Mostly Cloudy
4:14 AM 10.4 °F - 6.8 °F 85% 30.28 in 10.0 mi Calm Calm - N/A   Overcast
4:34 AM 12.2 °F 6.1 °F 8.6 °F 85% 30.29 in 10.0 mi North 3.5 mph - N/A   Overcast
5:15 AM 10.4 °F - 6.8 °F 85% 30.30 in 10.0 mi Calm Calm - N/A   Mostly Cloudy
5:34 AM 10.4 °F - 6.8 °F 85% 30.30 in 10.0 mi Calm Calm - N/A   Overcast
5:53 AM 10.4 °F 4.0 °F 6.8 °F 85% 30.31 in 10.0 mi North 3.5 mph - N/A   Overcast
6:15 AM 10.4 °F 2.2 °F 6.8 °F 85% 30.31 in 10.0 mi North 4.6 mph - N/A   Mostly Cloudy
6:35 AM 8.6 °F 0.1 °F 6.8 °F 92% 30.31 in 10.0 mi NNE 4.6 mph - N/A   Mostly Cloudy
6:53 AM 10.4 °F 2.2 °F 6.8 °F 85% 30.32 in 10.0 mi NNE 4.6 mph - N/A   Scattered Clouds
7:14 AM 10.4 °F 4.0 °F 6.8 °F 85% 30.32 in 10.0 mi NE 3.5 mph - N/A   Scattered Clouds
7:35 AM 8.6 °F 2.0 °F 5.0 °F 85% 30.33 in 10.0 mi NNE 3.5 mph - N/A   Mostly Cloudy
7:52 AM 8.6 °F 0.1 °F 3.2 °F 79% 30.33 in 10.0 mi NNE 4.6 mph - N/A   Scattered Clouds
8:15 AM 10.4 °F 2.2 °F 5.0 °F 79% 30.34 in 10.0 mi NE 4.6 mph - N/A   Clear
8:35 AM 12.2 °F 2.9 °F 6.8 °F 79% 30.34 in 10.0 mi NE 5.8 mph - N/A   Clear
8:53 AM 15.8 °F 7.2 °F 6.8 °F 68% 30.35 in 10.0 mi ENE 5.8 mph - N/A   Clear
9:15 AM 15.8 °F 6.1 °F 6.8 °F 68% 30.35 in 10.0 mi ENE 6.9 mph - N/A   Scattered Clouds
9:34 AM 17.6 °F 7.3 °F 6.8 °F 63% 30.35 in 10.0 mi ENE 8.1 mph - N/A   Mostly Cloudy
9:53 AM 17.6 °F 9.3 °F 6.8 °F 63% 30.35 in 10.0 mi East 5.8 mph - N/A   Scattered Clouds
10:14 AM 19.4 °F - 8.6 °F 63% 30.35 in 10.0 mi Calm Calm - N/A   Mostly Cloudy
10:35 AM 19.4 °F 14.3 °F 8.6 °F 63% 30.35 in 10.0 mi SE 3.5 mph - N/A   Scattered Clouds
10:53 AM 19.4 °F - 8.6 °F 63% 30.36 in 10.0 mi Calm Calm - N/A   Clear
11:15 AM 19.4 °F - 10.4 °F 68% 30.36 in 10.0 mi Calm Calm - N/A   Clear
11:35 AM 21.2 °F - 10.4 °F 63% 30.36 in 10.0 mi Calm Calm - N/A   Clear
11:52 AM 21.2 °F - 10.4 °F 63% 30.35 in 10.0 mi Calm Calm - N/A   Clear
12:15 PM 23.0 °F 17.0 °F 10.4 °F 59% 30.35 in 10.0 mi NNW 4.6 mph - N/A   Clear
12:35 PM 23.0 °F 14.7 °F 10.4 °F 59% 30.35 in 10.0 mi North 6.9 mph - N/A   Clear
12:52 PM 23.0 °F 14.7 °F 10.4 °F 59% - 10.0 mi North 6.9 mph - N/A   Clear
1:15 PM 24.8 °F 19.1 °F 10.4 °F 54% 30.35 in 10.0 mi NNE 4.6 mph - N/A   Clear
1:35 PM 24.8 °F 19.1 °F 12.2 °F 59% 30.34 in 10.0 mi North 4.6 mph - N/A   Mostly Cloudy
1:53 PM 24.8 °F 17.9 °F 12.2 °F 59% 30.33 in 10.0 mi North 5.8 mph - N/A   Overcast
2:14 PM 24.8 °F 20.5 °F 10.4 °F 54% 30.32 in 10.0 mi NNW 3.5 mph - N/A   Overcast
2:35 PM 24.8 °F 16.9 °F 12.2 °F 59% 30.32 in 10.0 mi North 6.9 mph - N/A   Overcast
2:52 PM 24.8 °F 19.1 °F 12.2 °F 59% 30.32 in 10.0 mi NNW 4.6 mph - N/A   Overcast
3:15 PM 26.6 °F 22.6 °F 12.2 °F 55% 30.32 in 10.0 mi North 3.5 mph - N/A   Overcast
3:35 PM 26.6 °F 21.2 °F 12.2 °F 55% 30.31 in 10.0 mi North 4.6 mph - N/A   Scattered Clouds
3:53 PM 26.6 °F 21.2 °F 10.4 °F 51% 30.32 in 10.0 mi NNW 4.6 mph - N/A   Clear
4:15 PM 24.8 °F 17.9 °F 12.2 °F 59% 30.32 in 10.0 mi North 5.8 mph - N/A   Clear
4:35 PM 24.8 °F 16.9 °F 10.4 °F 54% 30.32 in 10.0 mi North 6.9 mph - N/A   Clear
4:53 PM 24.8 °F 17.9 °F 10.4 °F 54% 30.32 in 10.0 mi North 5.8 mph - N/A   Clear
5:15 PM 24.8 °F 17.9 °F 10.4 °F 54% 30.32 in 10.0 mi North 5.8 mph - N/A   Clear
5:34 PM 23.0 °F 18.4 °F 10.4 °F 59% 30.33 in 10.0 mi North 3.5 mph - N/A   Clear
6:15 PM 21.2 °F - 8.6 °F 58% 30.34 in 10.0 mi Calm Calm - N/A   Clear
6:35 PM 21.2 °F - 8.6 °F 58% 30.34 in 10.0 mi Calm Calm - N/A   Clear
6:52 PM 21.2 °F - 8.6 °F 58% 30.34 in 10.0 mi Calm Calm - N/A   Clear
7:14 PM 15.8 °F - 8.6 °F 73% 30.34 in 10.0 mi Calm Calm - N/A   Clear
7:35 PM 17.6 °F 9.3 °F 8.6 °F 68% 30.34 in 10.0 mi NW 5.8 mph - N/A   Clear
7:52 PM 15.8 °F - 6.8 °F 68% 30.34 in 10.0 mi Calm Calm - N/A   Clear
8:15 PM 15.8 °F 10.2 °F 8.6 °F 73% 30.34 in 10.0 mi NNW 3.5 mph - N/A   Clear
8:35 PM 15.8 °F 10.2 °F 8.6 °F 73% 30.34 in 10.0 mi NW 3.5 mph - N/A   Clear
8:52 PM 12.2 °F - 6.8 °F 79% 30.33 in 10.0 mi Calm Calm - N/A   Clear
9:15 PM 8.6 °F - 6.8 °F 92% 30.33 in 10.0 mi Calm Calm - N/A   Clear
9:35 PM 12.2 °F - 8.6 °F 85% 30.33 in 10.0 mi Calm Calm - N/A   Clear
9:52 PM 12.2 °F - 8.6 °F 85% 30.33 in 10.0 mi Calm Calm - N/A   Clear
10:14 PM 10.4 °F - 6.8 °F 85% 30.33 in 10.0 mi Calm Calm - N/A   Clear
10:35 PM 8.6 °F - 6.8 °F 92% 30.34 in 10.0 mi Calm Calm - N/A   Clear
10:53 PM 8.6 °F - 6.8 °F 92% 30.32 in 10.0 mi Calm Calm - N/A   Clear
11:14 PM 5.0 °F - 1.4 °F 85% 30.32 in 10.0 mi Calm Calm - N/A   Clear
11:35 PM 3.2 °F - 1.4 °F 92% 30.32 in 10.0 mi Calm Calm - N/A   Clear
11:53 PM 3.2 °F - 1.4 °F 92% 30.32 in 7.0 mi Calm Calm - N/A   Clear